Livingston, MT

7:14 PM MDT on July 20, 2017 (GMT -0600)
Mission

Weather History for KLVM - February, 2014

Change the Weather History Date:

Tuesday, February 4, 2014

  Actual Average Record
Temperature  
Mean Temperature -5 °F 28 °F  
Max Temperature 0 °F 38 °F 60 °F (2005)
Min Temperature -11 °F 18 °F -30 °F (1989)
Degree Days  
Heating Degree Days 70 37  
Month to date heating degree days 233 149  
Since 1 July heating degree days 4178 4490  
Cooling Degree Days 0 0  
Month to date cooling degree days 0  
Year to date cooling degree days 0  
Moisture  
Dew Point -12 °F    
Average Humidity 72    
Maximum Humidity 79    
Minimum Humidity 64    
Precipitation  
Precipitation T in 0.01 in 0.18 in (2003)
Month to date precipitation 0.01 0.06  
Year to date precipitation 0.42 0.55  
Sea Level Pressure  
Sea Level Pressure 30.39 in    
Wind  
Wind Speed 17 mph (East)    
Max Wind Speed 25 mph    
Max Gust Speed 29 mph    
Visibility 7 miles    
Events Snow    
T = Trace of Precipitation, MM = Missing Value Source: NWS Daily Summary

Daily Weather History Graph

Daily Weather History Graph

Search for Another Location

Airport or City:

Trip Planner

Search our weather history database for the weather conditions in past years. The results will help you decide how hot, cold, wet, or windy it might be!

Date:

Astronomy

Feb. 04, 2014 Rise Set
Actual Time 7:39 AM MST 5:32 PM MST
Civil Twilight 7:08 AM MST 6:04 PM MST
Nautical Twilight 6:32 AM MST 6:39 PM MST
Astronomical Twilight 5:57 AM MST 7:14 PM MST
Moon 10:00 AM MST (2/4) 11:51 PM MST (2/4)
Length of Visible Light 10h 55m
Length of Day
9h 53m
Waxing Crescent, 29% of the Moon is Illuminated
Feb 4
Waxing Crescent
Feb 6
First Quarter
Feb 14
Full
Feb 22
Last Quarter
Mar 1
New

Hourly Weather History & Observations

Time (MST) Temp. Windchill Dew Point Humidity Pressure Visibility Wind Dir Wind Speed Gust Speed Precip Events Conditions
12:02 AM -0.0 °F -23.3 °F -5.1 °F 79% 30.10 in 1.5 mi East 23.0 mph - 0.00 in Snow Light Snow
12:19 AM -0.0 °F -21.8 °F -6.0 °F 76% 30.10 in 2.5 mi East 19.6 mph - 0.00 in Snow Light Snow
12:31 AM -0.0 °F -22.9 °F -6.0 °F 76% 30.10 in 3.0 mi East 21.9 mph - 0.00 in   Haze
12:53 AM -0.9 °F -25.5 °F -7.1 °F 75% 30.38 in 3.0 mi East 25.3 mph - 0.00 in   Overcast
1:41 AM -0.9 °F -23.0 °F -7.1 °F 75% 30.12 in 2.5 mi East 19.6 mph - 0.00 in Snow Light Snow
1:53 AM -0.9 °F -23.5 °F -7.1 °F 75% 30.41 in 3.0 mi East 20.7 mph - 0.00 in   Haze
2:53 AM -2.9 °F -24.4 °F -8.0 °F 79% 30.44 in 10.0 mi East 17.3 mph - N/A   Overcast
3:53 AM -2.9 °F -25.0 °F -9.0 °F 75% 30.44 in 7.0 mi East 18.4 mph - N/A   Overcast
4:11 AM -2.9 °F -23.8 °F -9.9 °F 72% 30.15 in 6.0 mi East 16.1 mph - N/A   Haze
4:23 AM -2.9 °F -24.4 °F -9.9 °F 72% 30.16 in 6.0 mi East 17.3 mph - N/A   Haze
4:53 AM -4.0 °F -25.2 °F -11.0 °F 72% 30.45 in 8.0 mi East 16.1 mph - N/A   Mostly Cloudy
5:16 AM -4.0 °F -24.5 °F -11.0 °F 72% 30.17 in 10.0 mi East 15.0 mph - N/A   Mostly Cloudy
5:23 AM -4.0 °F -25.2 °F -11.0 °F 72% 30.17 in 10.0 mi East 16.1 mph - N/A   Overcast
5:36 AM -4.0 °F -23.0 °F -11.9 °F 69% 30.18 in 9.0 mi East 12.7 mph - N/A   Overcast
5:53 AM -4.0 °F -23.0 °F -11.9 °F 69% 30.46 in 9.0 mi East 12.7 mph - N/A   Mostly Cloudy
6:53 AM -6.0 °F -24.6 °F -11.9 °F 75% 30.50 in 7.0 mi East 11.5 mph - N/A   Overcast
7:11 AM -6.0 °F -25.5 °F -11.9 °F 75% 30.19 in 10.0 mi ENE 12.7 mph - N/A   Mostly Cloudy
7:53 AM -6.0 °F -27.0 °F -11.0 °F 79% 30.52 in 10.0 mi East 15.0 mph - N/A   Overcast
8:53 AM -5.1 °F -28.4 °F -9.9 °F 80% 30.54 in 2.0 mi ENE 19.6 mph - 0.00 in Snow Light Snow
8:55 AM -5.1 °F -27.8 °F -11.0 °F 76% 30.22 in 1.5 mi ENE 18.4 mph - 0.00 in Snow Light Snow
9:13 AM -5.1 °F -29.5 °F -11.0 °F 76% 30.22 in 3.0 mi East 21.9 mph - 0.00 in Snow Light Snow
9:40 AM -4.0 °F -27.0 °F -11.0 °F 72% 30.22 in 2.0 mi East 19.6 mph - 0.00 in Snow Light Snow
9:53 AM -4.0 °F -27.6 °F -11.0 °F 72% 30.54 in 3.0 mi East 20.7 mph - 0.00 in Snow Light Snow
10:38 AM -2.9 °F -26.1 °F -11.0 °F 68% 30.24 in 10.0 mi East 20.7 mph - 0.00 in   Overcast
10:53 AM -2.9 °F -24.4 °F -9.9 °F 72% 30.57 in 7.0 mi East 17.3 mph - 0.00 in   Overcast
11:30 AM -2.9 °F -25.0 °F -11.0 °F 68% 30.25 in 10.0 mi East 18.4 mph - N/A   Scattered Clouds
11:53 AM -2.9 °F -23.8 °F -11.0 °F 68% 30.56 in 10.0 mi East 16.1 mph - N/A   Clear
12:51 PM -2.2 °F -24.7 °F -11.2 °F 66% 30.23 in 10.0 mi East 19.6 mph - N/A   Mostly Cloudy
12:53 PM -2.0 °F -25.5 °F -11.0 °F 66% 30.55 in 10.0 mi East 21.9 mph - N/A   Mostly Cloudy
1:35 PM -2.0 °F -23.9 °F -11.0 °F 66% 30.23 in 10.0 mi East 18.4 mph - N/A   Scattered Clouds
1:53 PM -2.0 °F -24.4 °F -11.0 °F 66% 30.55 in 10.0 mi East 19.6 mph - N/A   Partly Cloudy
2:53 PM -2.9 °F -26.1 °F -11.9 °F 65% 30.57 in 10.0 mi East 20.7 mph - N/A   Partly Cloudy
3:53 PM -4.0 °F -27.6 °F -13.0 °F 65% 30.58 in 10.0 mi East 20.7 mph - N/A   Clear
4:53 PM -5.1 °F -27.8 °F -14.1 °F 65% 30.60 in 10.0 mi East 18.4 mph - N/A   Clear
5:15 PM -7.1 °F -31.0 °F -15.0 °F 68% 30.26 in 10.0 mi East 19.6 mph - N/A   Mostly Cloudy
5:53 PM -8.0 °F -32.2 °F -16.1 °F 68% 30.63 in 8.0 mi East 19.6 mph - N/A   Mostly Cloudy
6:04 PM -8.0 °F -32.8 °F -16.1 °F 68% 30.28 in 10.0 mi ESE 20.7 mph - N/A   Scattered Clouds
6:53 PM -9.0 °F -32.4 °F -17.0 °F 68% 30.67 in 10.0 mi East 17.3 mph - N/A   Partly Cloudy
7:53 PM -9.9 °F -33.5 °F -18.0 °F 68% 30.69 in 10.0 mi ESE 17.3 mph - N/A   Mostly Cloudy
8:29 PM -9.9 °F -32.1 °F -18.0 °F 68% 30.33 in 5.0 mi ESE 15.0 mph - 0.00 in Snow Light Snow
8:44 PM -9.9 °F -31.3 °F -18.0 °F 68% 30.33 in 9.0 mi ESE 13.8 mph - 0.00 in   Mostly Cloudy
8:53 PM -9.9 °F -32.1 °F -18.0 °F 68% 30.70 in 10.0 mi ESE 15.0 mph - 0.00 in   Overcast
9:22 PM -9.0 °F -30.2 °F -17.0 °F 68% 30.34 in 9.0 mi ESE 13.8 mph - N/A   Overcast
9:45 PM -9.0 °F -29.3 °F -17.0 °F 68% 30.34 in 6.0 mi ESE 12.7 mph - 0.00 in Snow Light Snow
9:53 PM -9.0 °F -29.3 °F -17.0 °F 68% 30.71 in 8.0 mi ESE 12.7 mph - 0.00 in Snow Light Snow
10:46 PM -9.0 °F -29.3 °F -17.0 °F 68% 30.34 in 6.0 mi East 12.7 mph - 0.00 in   Haze
10:53 PM -9.0 °F -28.4 °F -17.0 °F 68% 30.70 in 6.0 mi East 11.5 mph - 0.00 in   Haze
11:17 PM -9.9 °F -27.5 °F -17.0 °F 71% 30.35 in 4.0 mi East 9.2 mph - N/A   Haze
11:53 PM -9.9 °F -27.5 °F -17.0 °F 71% 30.73 in 5.0 mi East 9.2 mph - N/A   Haze